SCP
0 0 0 0 0 0 0 0 0 0 0 0 0 0 0 0 0 0 0 0 0 0 0 0 0 0 0 0 0 0 0 0 0 0 0 0 0 0 0 0 0 0 0 0
0 0 0 0 0 0 0 0 0 0 0 0 0 0 0 0 0 0 0 0 0 0 0 0 0 0 0 0 0 0 0 0 0 0 0 0 0 0 0 0 0 0 0 0
0 0 0 0 0 0 0 0 0 0 0 0 0 0 0 0 0 0 0 0 0 0 0 0 0 0 0 0 0 0 0 0 0 0 0 0 0 0 0 0 0 0 0 0
0 0 0 0 0 0 0 0 0 0 0 0 0 0 0 0 0 0 0 0 0 0 0 0 0 0 0 0 0 0 0 0 0 0 0 0 0 0 0 0 0 0 0 0
0 0 0 0 0 0 0 0 0 0 0 0 0 0 0 0 0 0 0 0 0 0 0 0 0 0 0 0 0 0 0 0 0 0 0 0 0 0 0 0 0 0 0 0
0 0 0 0 0 0 0 0 0 0 0 0 0 0 0 0 0 0 0 0 0 0 0 0 0 0 0 0 0 0 0 0 0 0 0 0 0 0 0 0 0 0 0 0
0 0 0 0 0 0 0 0 0 0 0 0 0 0 0 0 0 0 0 0 0 0 0 0 0 0 0 0 0 0 0 0 0 0 0 0 0 0 0 0 0 0 0 0
0 0 0 0 0 0 0 0 0 0 0 0 0 0 0 0 0 0 0 0 0 0 0 0 0 0 0 0 0 0 0 0 0 0 0 0 0 0 0 0 0 0 0 0
0 0 0 0 0 0 0 0 0 0 0 0 0 0 0 0 0 0 0 0 0 0 0 0 0 0 0 0 0 0 0 0 0 0 0 0 0 0 0 0 0 0 0 0
0 0 0 0 0 0 0 0 0 0 0 0 0 0 0 0 0 0 0 0 0 0 0 0 0 0 0 0 0 0 0 0 0 0 0 0 0 0 0 0 0 0 0 0
0 0 0 0 0 0 0 0 0 0 -0 0 0 0 0 0 0 0 0 0 0 0 0 0 0 0 0 0 0 0 0 0 0 0 0 0 0 0 0 0 0 0 0 0
0 0 0 0 0 0 0 0 0 0 0 -0 -0 -0 0 0 0 0 0 0 0 0 0 0 0 0 0 0 0 0 0 0 0 0 0 0 0 0 0 0 0 0 0 0
0 0 0 0 0 0 0 0 0 0 0 -0 -0 -0 -0 -0 0 0 0 0 0 0 0 0 0 0 0 0 0 0 0 0 0 0 0 0 0 0 -0 -0 -0 0 0 0
0 0 0 0 0 0 0 0 0 0 0 -0 -0 -0 -0 -0 0 0 0 0 0 0 0 0 0 0 0 0 0 0 0 0 0 0 0 0 0 -0 -0 -0 -0 0 0 0
0 0 0 0 -0 -0 0 0 0 0 0 -0 -0 -0 -0 -0 0 0 0 0 0 0 0 0 0 0 0 0 0 0 0 0 0 0 0 0 0 -0 -0 -0 -0 0 0 0
0 0 0 0 -0 -0 0 0 0 0 0 0 -0 -0 -0 0 0 0 0 0 0 0 0 0 0 0 0 0 0 0 0 0 0 0 0 0 0 0 0 -0 -0 0 -0 -0
0 0 0 0 -0 -0 0 0 0 0 0 0 -0 -0 0 0 0 0 0 0 0 0 0 0 0 0 0 0 0 0 0 0 0 0 0 0 0 0 0 0 0 0 0 0
0 0 0 0 -0 -0 0 0 0 0 0 0 0 0 0 0 0 0 0 0 0 0 0 0 0 0 0 0 0 0 0 0 0 0 0 0 0 0 0 0 0 0 0 0
0 0 0 0 -0 -0 0 0 0 0 0 0 0 0 0 -0 0 0 0 0 0 0 0 0 0 0 0 0 0 0 0 0 0 0 0 0 0 0 0 0 0 0 0 0
0 0 0 0 0 0 0 0 0 0 0 0 0 0 0 -0 0 0 0 0 0 0 0 0 0 0 0 0 0 0 0 0 0 0 0 0 0 0 0 0 0 0 0 0
0 0 0 0 0 0 0 0 0 0 0 0 0 0 0 0 0 0 0 0 0 0 0 0 0 0 0 0 0 0 0 0 0 0 0 0 0 0 0 0 0 0 0 0
0 0 0 0 0 0 0 0 0 0 0 0 0 0 0 0 0 0 0 0 0 0 0 0 0 0 0 0 0 0 0 0 0 0 0 0 0 0 0 0 0 0 0 0
0 0 0 0 0 0 0 0 0 0 -0 0 0 0 0 0 0 0 0 0 0 0 0 0 0 0 0 0 0 0 0 0 0 0 0 0 0 0 0 0 0 0 0 0
0 0 0 0 0 0 0 0 0 0 0 0 0 0 0 0 0 0 0 0 0 0 0 0 0 0 0 0 0 0 0 0 0 0 0 0 0 0 0 0 0 0 0 0
0 0 0 0 0 0 0 0 0 0 0 0 0 0 0 0 0 -0 -0 0 0 0 0 0 0 0 0 0 0 0 0 0 0 0 0 0 0 0 0 0 0 0 0 0
0 0 0 0 0 0 0 0 0 0 0 0 0 0 0 0 -0 -0 -0 0 0 0 0 0 0 0 0 0 0 0 0 0 0 0 0 0 0 0 0 0 0 0 0 0
0 0 0 0 0 0 0 0 0 0 0 0 0 0 -0 -0 -0 -0 -0 0 0 0 0 0 0 0 0 0 0 0 0 0 0 0 0 0 0 0 0 0 0 0 0 0
Wind_Speed
5 6 6 7 8 6 4 5 5 6 6 7 8 8 8 7 6 6 6 6 6 5 4 3 3 2 2 2 2 2 2 2 2 1 1 0 1 1 1 1 1 0 0 1
4 6 7 8 8 6 4 2 3 2 3 3 5 5 6 6 7 7 6 6 6 6 5 4 4 3 2 2 1 2 2 2 1 1 0 0 1 1 1 1 1 1 1 1
4 6 6 6 5 3 2 2 4 5 5 5 5 6 8 8 8 7 7 6 7 6 5 5 4 4 3 3 2 2 2 2 1 1 1 0 0 1 1 1 1 1 2 1
2 3 4 8 4 1 1 2 1 3 5 8 7 6 5 6 8 7 6 6 6 6 5 4 3 3 3 2 2 2 1 1 1 1 1 1 0 0 1 1 0 1 1 2
2 2 6 7 4 1 1 2 0 3 4 5 6 5 1 3 7 7 6 6 6 5 5 4 4 4 4 2 2 2 1 1 1 2 1 1 0 1 1 1 1 1 2 1
2 2 5 7 5 2 3 2 2 3 5 6 6 3 3 3 6 6 5 5 5 5 4 4 3 4 4 3 2 2 2 2 1 1 1 1 1 1 1 1 1 2 2 2
3 4 6 5 3 2 1 6 3 3 5 6 5 5 5 6 6 7 6 6 6 5 4 3 4 4 4 3 2 3 2 2 1 1 1 2 1 1 1 1 1 2 2 2
2 3 7 4 1 2 5 2 3 3 5 6 5 6 6 7 7 7 6 5 6 5 3 2 3 4 3 3 3 2 2 1 1 1 1 1 1 1 1 1 1 2 2 3
4 7 7 3 3 3 3 3 1 3 5 8 8 7 7 6 6 6 6 5 4 5 4 2 2 4 4 3 2 2 2 1 1 1 1 1 1 1 1 1 1 2 2 3
3 5 5 4 2 2 1 1 3 6 7 8 8 8 7 6 5 5 5 4 4 5 4 2 2 3 4 3 3 3 2 1 2 1 2 2 1 1 2 2 2 2 2 3
5 6 3 3 2 1 1 2 5 5 5 8 9 8 7 6 6 5 5 4 4 5 4 3 3 3 3 3 3 3 2 1 2 2 2 2 2 2 3 3 4 4 3 3
8 7 4 6 5 1 2 3 5 5 4 5 8 8 7 6 5 5 5 4 4 4 4 3 3 3 3 3 3 3 2 1 1 1 1 2 2 3 4 5 6 7 7 6
7 6 6 6 4 2 3 3 4 6 6 6 6 7 7 5 5 5 5 5 5 5 5 4 3 3 3 3 3 3 3 2 2 1 2 2 2 2 4 5 5 6 8 8
5 2 3 4 4 3 4 4 5 5 6 8 7 7 7 5 5 6 6 6 5 5 5 4 4 4 4 3 3 3 3 3 3 2 2 2 2 3 3 3 4 5 6 8
6 4 5 4 3 4 4 4 6 6 7 7 7 8 7 7 7 6 6 5 5 4 4 4 4 4 4 3 3 3 3 2 2 2 2 2 2 3 3 3 4 4 4 5
3 2 2 4 5 5 4 6 7 7 8 7 7 7 7 7 7 6 5 6 6 5 4 4 4 5 4 4 3 3 3 4 4 2 2 2 2 3 3 3 4 4 4 5
2 2 4 5 5 6 6 6 7 8 8 8 8 7 7 7 6 5 5 5 6 5 5 5 5 5 4 4 4 3 3 3 4 3 3 3 3 3 3 3 4 4 5 5
8 8 8 9 7 6 6 7 8 9 8 8 8 7 7 8 7 7 6 5 4 4 4 5 5 4 4 4 4 3 2 2 2 3 3 3 3 3 3 4 4 4 4 5
5 7 6 7 7 6 6 7 8 9 8 8 8 8 7 7 7 6 5 5 5 5 5 5 6 5 4 4 3 2 2 2 2 2 3 3 3 3 3 3 4 4 4 4
3 5 6 6 6 6 6 6 7 7 8 8 8 7 6 7 7 6 6 5 5 6 5 5 4 4 4 4 3 2 2 2 2 2 2 2 3 3 4 4 4 4 3 3
3 4 5 5 5 6 6 7 7 8 8 8 8 8 8 7 7 6 5 4 5 5 5 6 4 3 3 3 3 1 2 2 3 3 3 3 3 3 4 4 4 3 3 3
3 3 4 5 6 5 5 5 7 8 8 7 7 7 7 7 6 5 5 5 5 6 4 3 3 4 4 3 2 1 2 2 3 3 3 3 3 3 4 4 3 3 3 3
2 3 4 6 6 6 5 5 6 7 8 8 8 7 7 7 6 6 4 4 4 6 5 4 5 6 6 3 2 2 2 3 2 2 3 3 3 3 3 4 3 3 3 3
2 3 5 5 5 5 5 5 5 6 7 7 7 8 7 5 3 4 4 6 7 7 4 5 7 8 6 2 2 2 3 3 3 3 3 3 3 3 3 3 3 3 3 3
3 4 5 6 5 4 5 4 5 5 5 4 5 6 6 5 5 4 4 5 7 6 4 5 8 7 4 2 3 3 3 3 3 3 2 2 3 3 2 2 2 2 2 2
3 4 5 5 5 4 4 4 4 4 4 4 4 4 4 4 5 4 4 4 6 6 4 3 4 4 3 3 3 3 3 3 3 3 2 2 2 2 2 2 3 2 2 2
3 3 3 3 3 4 4 5 5 4 5 6 5 4 4 4 4 4 4 4 4 4 3 3 3 3 3 3 2 2 2 2 2 2 2 1 1 1 2 2 1 1 1 1
Wind_Direction
258 276 287 292 291 285 264 212 208 230 216 217 195 179 169 164 158 150 155 157 162 167 169 162 151 155 151 156 157 153 145 151 191 226 240 277 327 310 315 317 266 217 111 331
305 294 299 301 293 281 273 235 198 201 252 211 161 148 151 163 163 162 165 164 161 162 167 166 165 165 156 150 152 140 140 164 196 203 204 329 290 297 339 343 338 4 357 326
280 292 326 297 269 253 267 235 187 211 221 165 151 165 171 176 170 168 166 165 163 167 174 172 173 166 166 172 163 152 159 165 183 159 155 222 216 34 6 338 3 353 333 327
258 339 261 251 263 199 176 255 171 158 174 169 170 172 173 167 164 167 163 159 162 163 166 171 169 158 156 147 151 156 155 161 173 166 169 175 110 26 302 295 312 303 305 298
180 237 273 281 287 235 187 276 188 128 146 151 132 95 59 174 158 162 161 158 161 164 163 162 164 163 144 138 146 145 157 176 177 158 154 151 230 278 277 289 305 295 288 292
187 207 248 255 279 265 92 290 300 134 149 148 128 142 226 177 134 128 133 138 144 143 135 152 170 150 137 148 154 188 189 184 176 163 162 188 236 264 284 286 283 304 314 303
218 228 257 263 280 37 126 248 245 165 162 158 167 189 171 140 126 127 131 132 135 133 137 161 159 140 141 154 189 206 189 171 187 214 210 213 236 262 280 300 319 321 318 308
194 224 250 299 34 173 222 226 161 147 150 142 133 122 122 128 129 128 130 135 139 138 143 152 146 140 151 185 200 176 152 151 211 254 252 206 227 294 307 309 318 308 309 309
210 231 262 282 235 229 170 148 157 139 143 136 134 140 130 134 141 141 145 147 145 145 145 154 159 153 162 196 178 150 138 175 252 276 286 259 226 254 289 297 288 289 284 285
282 277 291 302 343 3 64 132 154 142 138 139 141 147 140 142 149 151 152 152 142 139 147 164 176 168 179 184 163 151 169 224 254 268 287 295 283 246 234 251 261 271 271 275
271 271 304 299 280 277 1 97 110 119 132 146 143 148 148 151 158 162 158 153 147 151 161 176 173 171 181 174 158 157 185 231 256 251 257 285 287 262 240 241 233 233 247 246
245 240 232 256 260 201 145 149 144 134 125 144 148 151 149 155 163 164 158 152 152 159 168 179 173 178 193 180 163 163 192 244 253 254 269 271 283 307 301 269 270 259 247 241
244 256 245 242 236 212 173 174 165 152 152 152 146 148 149 157 164 161 160 163 169 174 177 178 177 190 203 189 174 175 195 226 248 250 256 267 273 279 302 312 300 277 265 258
247 263 264 246 222 194 166 167 159 150 150 148 146 145 147 152 156 161 172 179 175 169 171 176 181 205 214 195 183 193 209 231 237 243 248 252 256 259 255 267 296 299 285 266
256 239 230 223 188 169 152 153 149 149 144 142 146 150 154 158 166 177 182 175 165 166 176 175 182 213 215 192 186 198 211 232 241 250 252 249 260 274 273 270 270 278 293 295
272 266 170 163 172 179 169 168 164 165 156 152 157 166 169 169 170 175 176 167 162 179 190 186 198 218 208 188 192 207 226 239 236 242 258 267 270 274 280 281 280 280 279 279
200 209 183 180 191 198 193 188 178 172 162 160 166 168 165 161 163 173 181 180 177 187 192 194 208 216 202 192 195 213 230 249 254 258 256 258 264 266 268 271 276 278 276 275
208 211 199 185 186 192 194 183 172 166 165 169 162 159 164 169 177 183 186 179 174 190 208 208 207 205 201 198 198 203 212 232 243 245 256 262 265 269 274 277 276 276 280 286
219 207 202 192 185 179 182 178 170 167 166 163 163 169 178 181 180 179 176 169 177 200 225 221 206 197 205 215 201 197 211 234 259 265 262 268 275 277 273 273 276 276 279 287
214 192 182 182 178 172 169 167 166 165 166 164 163 166 173 181 179 176 174 184 200 205 208 209 199 197 207 222 213 204 218 234 254 271 271 267 265 271 278 280 281 286 288 284
189 170 169 171 168 162 161 166 170 171 167 162 165 173 178 182 181 172 169 196 225 207 197 198 194 200 207 215 218 219 228 240 249 256 259 264 269 278 286 289 290 290 289 288
171 167 169 157 150 154 165 171 171 169 166 168 172 170 169 177 180 177 187 197 205 196 188 193 196 205 208 202 199 212 237 243 248 257 264 269 273 277 281 284 284 282 279 276
175 172 162 158 158 163 170 172 175 173 173 176 174 174 176 182 178 173 200 213 193 193 188 197 202 204 204 196 203 216 234 244 251 258 262 270 272 272 278 284 281 277 279 283
171 168 164 159 151 153 167 180 182 180 178 178 180 179 173 173 187 197 190 190 192 193 196 201 201 206 204 199 209 223 239 250 255 257 259 266 274 278 281 284 284 282 284 295
167 161 156 152 156 171 181 177 168 170 170 175 181 179 174 172 177 187 177 180 184 180 188 198 202 205 198 203 212 226 239 248 253 254 253 260 268 272 279 284 284 286 292 294
175 170 170 174 175 172 170 165 166 176 173 171 175 176 172 167 164 162 163 171 172 175 182 191 194 195 200 213 223 231 239 253 255 248 242 248 259 260 270 279 287 288 286 289
173 163 159 162 170 166 165 168 172 183 182 172 169 175 170 162 159 162 162 165 168 175 183 191 193 190 196 204 216 227 233 244 250 251 257 264 267 269 279 289 298 309 324 337